Time,TemperatureF,DewpointF,PressureIn,WindDirection,WindDirectionDegrees,WindSpeedMPH,WindSpeedGustMPH,Humidity,HourlyPrecipIn,Conditions,Clouds,dailyrainin,SoftwareType,DateUTC
2013-09-20 00:01:00,67.3,64.2,29.95,SW,214,3.0,10.0,90,0.00,,,0.00,meteohub,2013-09-20 04:01:00,
2013-09-20 00:02:00,67.3,64.2,29.95,SW,216,7.0,10.0,90,0.00,,,0.00,meteohub,2013-09-20 04:02:00,
2013-09-20 00:07:00,67.3,64.2,29.95,WSW,242,10.0,13.0,90,0.00,,,0.00,meteohub,2013-09-20 04:07:00,
2013-09-20 00:12:00,67.1,64.4,29.95,WSW,240,10.0,13.0,91,0.00,,,0.00,meteohub,2013-09-20 04:12:00,
2013-09-20 00:17:00,66.9,64.2,29.95,SW,236,7.0,13.0,91,0.00,,,0.00,meteohub,2013-09-20 04:17:00,
2013-09-20 00:22:00,66.7,64.0,29.95,SW,219,7.0,12.0,91,0.00,,,0.00,meteohub,2013-09-20 04:22:00,
2013-09-20 00:27:00,66.7,64.0,29.95,WSW,237,4.0,12.0,91,0.00,,,0.00,meteohub,2013-09-20 04:27:00,
2013-09-20 00:32:00,66.6,64.2,29.95,SW,229,6.0,12.0,92,0.00,,,0.00,meteohub,2013-09-20 04:32:00,
2013-09-20 00:37:00,66.6,64.2,29.94,SSW,196,2.0,12.0,92,0.00,,,0.00,meteohub,2013-09-20 04:37:00,
2013-09-20 00:42:00,66.6,64.2,29.94,SSW,194,3.0,10.0,92,0.00,,,0.00,meteohub,2013-09-20 04:42:00,
2013-09-20 00:47:00,66.6,64.2,29.94,SW,219,5.0,7.0,92,0.00,,,0.00,meteohub,2013-09-20 04:47:00,
2013-09-20 00:52:00,66.6,64.2,29.94,SW,230,3.0,11.0,92,0.00,,,0.00,meteohub,2013-09-20 04:52:00,
2013-09-20 00:57:00,66.4,64.0,29.94,West,260,7.0,11.0,92,0.00,,,0.00,meteohub,2013-09-20 04:57:00,
2013-09-20 01:02:00,66.4,64.0,29.94,West,271,7.0,11.0,92,0.00,,,0.00,meteohub,2013-09-20 05:02:00,
2013-09-20 01:07:00,66.2,64.0,29.94,West,264,6.0,10.0,93,0.00,,,0.00,meteohub,2013-09-20 05:07:00,
2013-09-20 01:12:00,66.0,64.2,29.94,West,263,4.0,10.0,94,0.00,,,0.00,meteohub,2013-09-20 05:12:00,
2013-09-20 01:17:00,65.8,64.0,29.94,West,261,3.0,9.0,94,0.00,,,0.00,meteohub,2013-09-20 05:17:00,
2013-09-20 01:22:00,65.7,63.9,29.94,SW,230,6.0,7.0,94,0.00,,,0.00,meteohub,2013-09-20 05:22:00,
2013-09-20 01:27:00,65.5,63.7,29.94,SSW,205,5.0,6.0,94,0.00,,,0.00,meteohub,2013-09-20 05:27:00,
2013-09-20 01:32:00,65.5,63.7,29.94,SSW,204,3.0,10.0,94,0.00,,,0.00,meteohub,2013-09-20 05:32:00,
2013-09-20 01:37:00,65.5,63.7,29.94,SSW,201,4.0,10.0,94,0.00,,,0.00,meteohub,2013-09-20 05:37:00,
2013-09-20 01:42:00,65.7,63.9,29.94,South,185,3.0,10.0,94,0.00,,,0.00,meteohub,2013-09-20 05:42:00,
2013-09-20 01:47:00,65.8,64.0,29.94,SSW,205,6.0,10.0,94,0.00,,,0.00,meteohub,2013-09-20 05:47:00,
2013-09-20 01:52:00,66.0,64.2,29.93,SSW,192,4.0,10.0,94,0.00,,,0.00,meteohub,2013-09-20 05:52:00,
2013-09-20 01:57:00,66.0,64.2,29.93,SSW,203,3.0,9.0,94,0.00,,,0.00,meteohub,2013-09-20 05:57:00,
2013-09-20 02:02:00,66.0,64.2,29.94,SSW,202,1.0,9.0,94,0.00,,,0.00,meteohub,2013-09-20 06:02:00,
2013-09-20 02:07:00,65.8,64.0,29.94,SSW,204,3.0,7.0,94,0.00,,,0.00,meteohub,2013-09-20 06:07:00,
2013-09-20 02:12:00,65.8,64.0,29.94,SSW,199,0.0,6.0,94,0.00,,,0.00,meteohub,2013-09-20 06:12:00,
2013-09-20 02:17:00,65.8,64.0,29.94,SSW,199,0.0,5.0,94,0.00,,,0.00,meteohub,2013-09-20 06:17:00,
2013-09-20 02:22:00,65.7,63.9,29.94,SSW,198,0.0,5.0,94,0.00,,,0.00,meteohub,2013-09-20 06:22:00,
2013-09-20 02:27:00,65.7,63.9,29.94,SSW,198,0.0,3.0,94,0.00,,,0.00,meteohub,2013-09-20 06:27:00,
2013-09-20 02:32:00,65.7,63.9,29.94,SSW,198,0.0,3.0,94,0.00,,,0.00,meteohub,2013-09-20 06:32:00,
2013-09-20 02:37:00,65.5,63.7,29.94,SSW,198,1.0,3.0,94,0.00,,,0.00,meteohub,2013-09-20 06:37:00,
2013-09-20 02:42:00,65.5,63.7,29.94,SSW,196,1.0,2.0,94,0.00,,,0.00,meteohub,2013-09-20 06:42:00,
2013-09-20 02:47:00,65.1,63.7,29.94,SSW,192,3.0,3.0,95,0.00,,,0.00,meteohub,2013-09-20 06:47:00,
2013-09-20 02:52:00,64.9,63.5,29.94,South,190,2.0,3.0,95,0.00,,,0.00,meteohub,2013-09-20 06:52:00,
2013-09-20 02:57:00,64.9,63.5,29.94,South,174,2.0,3.0,95,0.00,,,0.00,meteohub,2013-09-20 06:57:00,
2013-09-20 03:02:00,64.9,63.5,29.94,SSE,161,3.0,5.0,95,0.00,,,0.00,meteohub,2013-09-20 07:02:00,
2013-09-20 03:07:00,64.8,63.3,29.94,SSE,161,1.0,5.0,95,0.00,,,0.00,meteohub,2013-09-20 07:07:00,
2013-09-20 03:12:00,64.6,63.1,29.93,SSE,159,0.0,5.0,95,0.00,,,0.00,meteohub,2013-09-20 07:12:00,
2013-09-20 03:17:00,64.8,63.3,29.93,SSE,157,0.0,4.0,95,0.00,,,0.00,meteohub,2013-09-20 07:17:00,
2013-09-20 03:22:00,64.8,63.3,29.93,SSE,155,2.0,4.0,95,0.00,,,0.00,meteohub,2013-09-20 07:22:00,
2013-09-20 03:27:00,64.6,63.1,29.93,SSE,155,0.0,4.0,95,0.00,,,0.00,meteohub,2013-09-20 07:27:00,
2013-09-20 03:32:00,64.6,63.5,29.93,SSE,155,0.0,4.0,96,0.00,,,0.00,meteohub,2013-09-20 07:32:00,
2013-09-20 03:37:00,64.6,63.5,29.93,SSE,154,0.0,4.0,96,0.00,,,0.00,meteohub,2013-09-20 07:37:00,
2013-09-20 03:42:00,64.2,63.1,29.93,SSE,150,1.0,2.0,96,0.00,,,0.00,meteohub,2013-09-20 07:42:00,
2013-09-20 03:47:00,64.2,63.1,29.93,North,0,1.0,2.0,96,0.00,,,0.00,meteohub,2013-09-20 07:47:00,
2013-09-20 03:52:00,64.2,63.1,29.93,SSE,150,0.0,4.0,96,0.00,,,0.00,meteohub,2013-09-20 07:52:00,
2013-09-20 03:57:00,64.6,63.5,29.93,SSE,157,1.0,4.0,96,0.00,,,0.00,meteohub,2013-09-20 07:57:00,
2013-09-20 04:02:00,64.6,63.5,29.93,South,176,2.0,4.0,96,0.00,,,0.00,meteohub,2013-09-20 08:02:00,
2013-09-20 04:07:00,64.8,63.7,29.92,South,177,0.0,4.0,96,0.00,,,0.00,meteohub,2013-09-20 08:07:00,
2013-09-20 04:13:00,64.6,63.5,29.92,South,177,0.0,4.0,96,0.00,,,0.00,meteohub,2013-09-20 08:13:00,
2013-09-20 04:18:00,64.8,63.7,29.92,South,174,0.0,4.0,96,0.00,,,0.00,meteohub,2013-09-20 08:18:00,
2013-09-20 04:23:00,65.3,64.0,29.92,South,184,2.0,4.0,96,0.00,,,0.00,meteohub,2013-09-20 08:23:00,
2013-09-20 04:28:00,65.7,64.2,29.91,South,170,7.0,8.0,95,0.00,,,0.00,meteohub,2013-09-20 08:28:00,
2013-09-20 04:33:00,65.8,64.4,29.91,South,173,5.0,10.0,95,0.00,,,0.00,meteohub,2013-09-20 08:33:00,
2013-09-20 04:38:00,66.0,64.6,29.91,South,185,10.0,13.0,95,0.00,,,0.00,meteohub,2013-09-20 08:38:00,
2013-09-20 04:43:00,66.4,64.9,29.90,South,186,6.0,14.0,95,0.00,,,0.00,meteohub,2013-09-20 08:43:00,
2013-09-20 04:48:00,66.4,64.9,29.90,South,175,10.0,17.0,95,0.00,,,0.00,meteohub,2013-09-20 08:48:00,
2013-09-20 04:53:00,66.6,65.1,29.90,SSW,196,6.0,20.0,95,0.00,,,0.00,meteohub,2013-09-20 08:53:00,
2013-09-20 04:58:00,66.7,65.3,29.90,South,186,10.0,20.0,95,0.00,,,0.00,meteohub,2013-09-20 08:58:00,
2013-09-20 05:03:00,66.9,65.5,29.90,South,184,11.0,20.0,95,0.00,,,0.00,meteohub,2013-09-20 09:03:00,
2013-09-20 05:08:00,67.3,65.8,29.90,SSW,194,13.0,21.0,95,0.00,,,0.00,meteohub,2013-09-20 09:08:00,
2013-09-20 05:14:00,67.3,65.8,29.90,South,191,10.0,21.0,95,0.00,,,0.00,meteohub,2013-09-20 09:14:00,
2013-09-20 05:19:00,67.5,66.0,29.90,South,190,10.0,21.0,95,0.00,,,0.00,meteohub,2013-09-20 09:19:00,
2013-09-20 05:24:00,67.5,66.0,29.90,SSW,201,15.0,19.0,95,0.00,,,0.00,meteohub,2013-09-20 09:24:00,
2013-09-20 05:29:00,67.6,66.2,29.90,South,173,12.0,22.0,95,0.00,,,0.00,meteohub,2013-09-20 09:29:00,
2013-09-20 05:34:00,67.6,66.2,29.89,SSW,199,18.0,23.0,95,0.00,,,0.00,meteohub,2013-09-20 09:34:00,
2013-09-20 05:39:00,67.6,66.2,29.89,South,178,9.0,23.0,95,0.00,,,0.00,meteohub,2013-09-20 09:39:00,
2013-09-20 05:44:00,67.6,66.2,29.89,SSW,192,13.0,23.0,95,0.00,,,0.00,meteohub,2013-09-20 09:44:00,
2013-09-20 05:49:00,67.8,66.0,29.89,SSW,200,12.0,22.0,94,0.00,,,0.00,meteohub,2013-09-20 09:49:00,
2013-09-20 05:54:00,67.8,66.0,29.89,South,184,16.0,22.0,94,0.00,,,0.00,meteohub,2013-09-20 09:54:00,
2013-09-20 06:00:00,67.8,66.0,29.89,SSE,168,10.0,25.0,94,0.00,,,0.00,meteohub,2013-09-20 10:00:00,
2013-09-20 06:05:00,67.8,66.0,29.89,SSW,192,7.0,25.0,94,0.00,,,0.00,meteohub,2013-09-20 10:05:00,
2013-09-20 06:10:00,67.8,66.0,29.89,SSW,194,8.0,25.0,94,0.00,,,0.00,meteohub,2013-09-20 10:10:00,
2013-09-20 06:15:00,67.6,65.8,29.89,SSE,165,9.0,19.0,94,0.00,,,0.00,meteohub,2013-09-20 10:15:00,
2013-09-20 06:20:00,67.6,65.8,29.89,South,184,8.0,19.0,94,0.00,,,0.00,meteohub,2013-09-20 10:20:00,
2013-09-20 06:25:00,67.5,65.7,29.90,South,178,7.0,19.0,94,0.00,,,0.00,meteohub,2013-09-20 10:25:00,
2013-09-20 06:30:00,67.5,65.7,29.90,South,184,12.0,15.0,94,0.00,,,0.00,meteohub,2013-09-20 10:30:00,
2013-09-20 06:35:00,67.3,65.5,29.90,SSE,167,10.0,14.0,94,0.00,,,0.00,meteohub,2013-09-20 10:35:00,
2013-09-20 06:40:00,66.9,65.1,29.90,South,180,10.0,14.0,94,0.00,,,0.00,meteohub,2013-09-20 10:40:00,
2013-09-20 06:45:00,66.7,64.9,29.90,South,186,18.0,18.0,94,0.00,,,0.00,meteohub,2013-09-20 10:45:00,
2013-09-20 06:50:00,66.6,64.8,29.91,South,187,12.0,20.0,94,0.00,,,0.00,meteohub,2013-09-20 10:50:00,
2013-09-20 06:55:00,66.6,64.8,29.90,South,182,15.0,20.0,94,0.00,,,0.00,meteohub,2013-09-20 10:55:00,
2013-09-20 07:00:00,66.6,65.1,29.90,South,179,15.0,20.0,95,0.00,,,0.00,meteohub,2013-09-20 11:00:00,
2013-09-20 07:06:00,66.6,65.1,29.90,SSW,209,14.0,19.0,95,0.00,,,0.00,meteohub,2013-09-20 11:06:00,
2013-09-20 07:11:00,66.6,65.1,29.90,South,187,11.0,19.0,95,0.00,,,0.00,meteohub,2013-09-20 11:11:00,
2013-09-20 07:16:00,66.6,65.1,29.90,South,186,15.0,19.0,95,0.00,,,0.00,meteohub,2013-09-20 11:16:00,
2013-09-20 07:21:00,66.7,64.9,29.90,SSE,155,11.0,19.0,94,0.00,,,0.00,meteohub,2013-09-20 11:21:00,
2013-09-20 07:26:00,66.6,64.8,29.90,SSW,204,13.0,24.0,94,0.00,,,0.00,meteohub,2013-09-20 11:26:00,
2013-09-20 07:31:00,66.6,64.8,29.90,South,176,19.0,24.0,94,0.00,,,0.00,meteohub,2013-09-20 11:31:00,
2013-09-20 07:36:00,66.6,65.1,29.89,South,181,11.0,24.0,95,0.00,,,0.00,meteohub,2013-09-20 11:36:00,
2013-09-20 07:41:00,66.6,64.8,29.89,SSW,200,15.0,23.0,94,0.00,,,0.00,meteohub,2013-09-20 11:41:00,
2013-09-20 07:47:00,66.6,64.8,29.89,South,184,13.0,23.0,94,0.00,,,0.00,meteohub,2013-09-20 11:47:00,
2013-09-20 07:52:00,66.6,64.8,29.89,South,172,13.0,22.0,94,0.00,,,0.00,meteohub,2013-09-20 11:52:00,
2013-09-20 07:57:00,66.6,64.8,29.89,South,186,15.0,21.0,94,0.00,,,0.00,meteohub,2013-09-20 11:57:00,
2013-09-20 08:02:00,66.6,64.8,29.89,South,177,20.0,21.0,94,0.00,,,0.00,meteohub,2013-09-20 12:02:00,
2013-09-20 08:07:00,66.4,64.6,29.89,SSE,163,8.0,22.0,94,0.00,,,0.00,meteohub,2013-09-20 12:07:00,
2013-09-20 08:12:00,66.6,64.8,29.89,SSW,202,13.0,22.0,94,0.00,,,0.00,meteohub,2013-09-20 12:12:00,
2013-09-20 08:17:00,66.7,65.3,29.88,South,176,19.0,22.0,95,0.00,,,0.00,meteohub,2013-09-20 12:17:00,
2013-09-20 08:22:00,66.9,65.1,29.88,South,182,13.0,20.0,94,0.00,,,0.00,meteohub,2013-09-20 12:22:00,
2013-09-20 08:27:00,67.3,65.5,29.88,SSE,161,16.0,20.0,94,0.00,,,0.00,meteohub,2013-09-20 12:27:00,
2013-09-20 08:32:00,67.5,65.7,29.88,South,186,11.0,20.0,94,0.00,,,0.00,meteohub,2013-09-20 12:32:00,
2013-09-20 08:37:00,67.6,65.5,29.87,South,185,7.0,20.0,93,0.00,,,0.00,meteohub,2013-09-20 12:37:00,
2013-09-20 08:42:00,68.0,65.8,29.88,SSW,192,11.0,22.0,93,0.00,,,0.00,meteohub,2013-09-20 12:42:00,
2013-09-20 08:47:00,68.2,66.0,29.87,SSE,165,9.0,22.0,93,0.00,,,0.00,meteohub,2013-09-20 12:47:00,
2013-09-20 08:52:00,68.4,66.2,29.88,SSW,209,14.0,22.0,93,0.00,,,0.00,meteohub,2013-09-20 12:52:00,
2013-09-20 08:57:00,68.5,66.4,29.87,South,173,11.0,21.0,93,0.00,,,0.00,meteohub,2013-09-20 12:57:00,
2013-09-20 09:02:00,68.7,66.6,29.86,South,182,16.0,20.0,93,0.00,,,0.00,meteohub,2013-09-20 13:02:00,
2013-09-20 09:07:00,68.7,66.6,29.86,SSW,196,12.0,20.0,93,0.00,,,0.00,meteohub,2013-09-20 13:07:00,
2013-09-20 09:12:00,68.9,66.6,29.86,SSE,162,11.0,20.0,92,0.00,,,0.00,meteohub,2013-09-20 13:12:00,
2013-09-20 09:17:00,68.9,66.6,29.86,SSW,194,16.0,20.0,92,0.00,,,0.00,meteohub,2013-09-20 13:17:00,
2013-09-20 09:22:00,68.9,66.6,29.86,SSW,196,13.0,23.0,92,0.00,,,0.00,meteohub,2013-09-20 13:22:00,
2013-09-20 09:27:00,68.9,66.6,29.87,South,179,17.0,23.0,92,0.00,,,0.00,meteohub,2013-09-20 13:27:00,
2013-09-20 09:32:00,69.1,66.7,29.86,South,188,18.0,24.0,92,0.00,,,0.00,meteohub,2013-09-20 13:32:00,
2013-09-20 09:38:00,69.3,66.9,29.86,South,187,19.0,24.0,92,0.00,,,0.00,meteohub,2013-09-20 13:38:00,
2013-09-20 09:43:00,69.3,66.9,29.86,South,169,16.0,24.0,92,0.00,,,0.00,meteohub,2013-09-20 13:43:00,
2013-09-20 09:48:00,69.3,66.9,29.87,SSW,196,12.0,22.0,92,0.00,,,0.00,meteohub,2013-09-20 13:48:00,
2013-09-20 09:53:00,69.4,67.1,29.87,South,169,17.0,22.0,92,0.00,,,0.00,meteohub,2013-09-20 13:53:00,
2013-09-20 09:58:00,69.6,67.3,29.88,SSE,159,12.0,22.0,92,0.00,,,0.00,meteohub,2013-09-20 13:58:00,
2013-09-20 10:03:00,70.0,67.5,29.88,South,188,12.0,22.0,92,0.00,,,0.00,meteohub,2013-09-20 14:03:00,
2013-09-20 10:09:00,70.0,67.5,29.88,SSE,164,10.0,25.0,92,0.00,,,0.00,meteohub,2013-09-20 14:09:00,
2013-09-20 10:14:00,70.3,67.8,29.88,SSW,206,12.0,25.0,92,0.00,,,0.00,meteohub,2013-09-20 14:14:00,
2013-09-20 10:19:00,70.2,67.5,29.88,SSW,192,13.0,26.0,91,0.00,,,0.00,meteohub,2013-09-20 14:19:00,
2013-09-20 10:24:00,70.2,67.6,29.88,South,175,15.0,26.0,92,0.00,,,0.00,meteohub,2013-09-20 14:24:00,
2013-09-20 10:29:00,70.2,67.5,29.87,South,179,15.0,26.0,91,0.00,,,0.00,meteohub,2013-09-20 14:29:00,
2013-09-20 10:34:00,70.7,68.0,29.87,South,178,6.0,23.0,91,0.00,,,0.00,meteohub,2013-09-20 14:34:00,
2013-09-20 10:40:00,71.1,68.4,29.87,SSW,193,20.0,23.0,91,0.00,,,0.00,meteohub,2013-09-20 14:40:00,
2013-09-20 10:45:00,71.2,68.5,29.86,South,184,20.0,27.0,91,0.00,,,0.00,meteohub,2013-09-20 14:45:00,
2013-09-20 10:50:00,71.6,68.9,29.86,SSW,207,12.0,27.0,91,0.00,,,0.00,meteohub,2013-09-20 14:50:00,
2013-09-20 10:56:00,72.1,69.1,29.86,South,182,12.0,23.0,90,0.00,,,0.00,meteohub,2013-09-20 14:56:00,
2013-09-20 11:01:00,72.1,68.7,29.86,SW,221,9.0,22.0,89,0.00,,,0.00,meteohub,2013-09-20 15:01:00,
2013-09-20 11:06:00,72.7,69.3,29.87,SSE,165,12.0,25.0,89,0.00,,,0.00,meteohub,2013-09-20 15:06:00,
2013-09-20 11:11:00,72.9,69.4,29.87,SE,137,11.0,25.0,89,0.00,,,0.00,meteohub,2013-09-20 15:11:00,
2013-09-20 11:17:00,72.9,69.4,29.87,SW,225,11.0,25.0,89,0.00,,,0.00,meteohub,2013-09-20 15:17:00,
2013-09-20 11:22:00,72.7,69.3,29.87,SSW,202,15.0,23.0,89,0.00,,,0.00,meteohub,2013-09-20 15:22:00,
2013-09-20 11:27:00,72.7,69.3,29.88,SSW,211,13.0,23.0,89,0.00,,,0.00,meteohub,2013-09-20 15:27:00,
2013-09-20 11:32:00,72.9,69.4,29.88,SW,226,15.0,23.0,89,0.00,,,0.00,meteohub,2013-09-20 15:32:00,
2013-09-20 11:37:00,72.9,69.4,29.88,SW,215,9.0,20.0,89,0.00,,,0.00,meteohub,2013-09-20 15:37:00,
2013-09-20 11:42:00,72.5,69.1,29.88,SSW,197,13.0,19.0,89,0.00,,,0.00,meteohub,2013-09-20 15:42:00,
2013-09-20 11:48:00,72.1,69.1,29.87,South,190,12.0,20.0,90,0.00,,,0.00,meteohub,2013-09-20 15:48:00,
2013-09-20 11:53:00,71.8,68.7,29.87,SSW,209,6.0,22.0,90,0.00,,,0.00,meteohub,2013-09-20 15:53:00,
2013-09-20 11:58:00,71.8,69.1,29.86,SSW,208,14.0,24.0,91,0.00,,,0.00,meteohub,2013-09-20 15:58:00,
2013-09-20 12:03:00,71.4,68.9,29.86,SSW,193,6.0,24.0,92,0.00,,,0.00,meteohub,2013-09-20 16:03:00,
2013-09-20 12:09:00,71.2,69.1,29.86,SW,215,5.0,24.0,93,0.00,,,0.00,meteohub,2013-09-20 16:09:00,
2013-09-20 12:14:00,71.2,69.1,29.86,SSW,194,5.0,18.0,93,0.00,,,0.00,meteohub,2013-09-20 16:14:00,
2013-09-20 12:19:00,71.1,69.3,29.86,SSW,205,11.0,17.0,94,0.00,,,0.00,meteohub,2013-09-20 16:19:00,
2013-09-20 12:24:00,70.9,69.1,29.85,SW,223,6.0,14.0,94,0.00,,,0.00,meteohub,2013-09-20 16:24:00,
2013-09-20 12:29:00,70.9,69.1,29.85,South,191,6.0,14.0,94,0.01,,,0.01,meteohub,2013-09-20 16:29:00,
2013-09-20 12:35:00,70.9,69.1,29.85,SSE,166,5.0,14.0,94,0.01,,,0.01,meteohub,2013-09-20 16:35:00,
2013-09-20 12:40:00,71.1,69.3,29.84,South,173,9.0,15.0,94,0.01,,,0.01,meteohub,2013-09-20 16:40:00,
2013-09-20 12:45:00,71.1,69.3,29.83,South,182,5.0,15.0,94,0.01,,,0.01,meteohub,2013-09-20 16:45:00,
2013-09-20 12:50:00,71.2,69.4,29.83,SE,139,6.0,15.0,94,0.01,,,0.01,meteohub,2013-09-20 16:50:00,
2013-09-20 12:55:00,71.2,69.4,29.83,SSW,198,13.0,19.0,94,0.01,,,0.01,meteohub,2013-09-20 16:55:00,
2013-09-20 13:01:00,71.4,69.6,29.83,SSW,208,5.0,19.0,94,0.01,,,0.01,meteohub,2013-09-20 17:01:00,
2013-09-20 13:06:00,71.4,69.6,29.83,South,190,4.0,19.0,94,0.01,,,0.01,meteohub,2013-09-20 17:06:00,
2013-09-20 13:11:00,71.4,69.6,29.83,SW,223,13.0,16.0,94,0.01,,,0.01,meteohub,2013-09-20 17:11:00,
2013-09-20 13:17:00,71.4,69.6,29.83,SSE,159,12.0,16.0,94,0.01,,,0.01,meteohub,2013-09-20 17:17:00,
2013-09-20 13:22:00,71.4,69.6,29.83,SSW,198,19.0,19.0,94,0.01,,,0.01,meteohub,2013-09-20 17:22:00,
2013-09-20 13:27:00,71.8,69.6,29.83,SSW,192,12.0,22.0,93,0.00,,,0.01,meteohub,2013-09-20 17:27:00,
2013-09-20 13:32:00,72.0,69.8,29.82,SSE,166,9.0,22.0,93,0.00,,,0.01,meteohub,2013-09-20 17:32:00,
2013-09-20 13:37:00,72.1,70.0,29.82,South,178,12.0,22.0,93,0.00,,,0.01,meteohub,2013-09-20 17:37:00,
2013-09-20 13:42:00,72.5,70.3,29.82,South,175,6.0,20.0,93,0.00,,,0.01,meteohub,2013-09-20 17:42:00,
2013-09-20 13:47:00,72.9,70.7,29.82,SSW,195,10.0,20.0,93,0.00,,,0.01,meteohub,2013-09-20 17:47:00,
2013-09-20 13:52:00,73.2,70.7,29.82,SSE,168,9.0,20.0,92,0.00,,,0.01,meteohub,2013-09-20 17:52:00,
2013-09-20 13:57:00,73.6,71.1,29.81,SSE,153,13.0,18.0,92,0.00,,,0.01,meteohub,2013-09-20 17:57:00,
2013-09-20 14:02:00,74.3,71.4,29.81,South,188,4.0,19.0,91,0.00,,,0.01,meteohub,2013-09-20 18:02:00,
2013-09-20 14:07:00,74.8,71.8,29.81,SSE,157,10.0,19.0,90,0.00,,,0.01,meteohub,2013-09-20 18:07:00,
2013-09-20 14:12:00,75.2,71.8,29.80,SSW,205,20.0,21.0,89,0.00,,,0.01,meteohub,2013-09-20 18:12:00,
2013-09-20 14:17:00,75.7,72.0,29.80,South,180,11.0,21.0,88,0.00,,,0.01,meteohub,2013-09-20 18:17:00,
2013-09-20 14:22:00,76.3,72.1,29.79,SSE,154,17.0,31.0,87,0.00,,,0.01,meteohub,2013-09-20 18:22:00,
2013-09-20 14:27:00,76.3,72.1,29.79,SW,230,14.0,31.0,87,0.00,,,0.01,meteohub,2013-09-20 18:27:00,
2013-09-20 14:32:00,76.5,72.3,29.78,South,170,11.0,31.0,87,0.00,,,0.01,meteohub,2013-09-20 18:32:00,
2013-09-20 14:37:00,76.5,72.3,29.78,SW,227,21.0,31.0,87,0.00,,,0.01,meteohub,2013-09-20 18:37:00,
2013-09-20 14:42:00,76.6,72.5,29.78,SE,144,7.0,28.0,87,0.00,,,0.01,meteohub,2013-09-20 18:42:00,
2013-09-20 14:47:00,76.8,72.3,29.78,South,184,13.0,26.0,86,0.00,,,0.01,meteohub,2013-09-20 18:47:00,
2013-09-20 14:52:00,76.8,72.3,29.77,SSW,194,17.0,26.0,86,0.00,,,0.01,meteohub,2013-09-20 18:52:00,
2013-09-20 14:57:00,77.0,72.5,29.78,SSE,161,19.0,25.0,86,0.00,,,0.01,meteohub,2013-09-20 18:57:00,
2013-09-20 15:02:00,77.4,72.5,29.78,SE,139,6.0,25.0,85,0.00,,,0.01,meteohub,2013-09-20 19:02:00,
2013-09-20 15:07:00,77.5,72.7,29.78,SSW,205,14.0,25.0,85,0.00,,,0.01,meteohub,2013-09-20 19:07:00,
2013-09-20 15:12:00,77.5,72.7,29.78,South,180,19.0,22.0,85,0.00,,,0.01,meteohub,2013-09-20 19:12:00,
2013-09-20 15:17:00,77.7,72.9,29.78,SSW,201,11.0,23.0,85,0.00,,,0.01,meteohub,2013-09-20 19:17:00,
2013-09-20 15:22:00,77.9,73.0,29.77,SSW,209,13.0,23.0,85,0.00,,,0.01,meteohub,2013-09-20 19:22:00,
2013-09-20 15:27:00,78.1,73.2,29.77,SW,226,13.0,23.0,85,0.00,,,0.01,meteohub,2013-09-20 19:27:00,
2013-09-20 15:32:00,78.3,73.0,29.77,SSW,196,17.0,25.0,84,0.00,,,0.01,meteohub,2013-09-20 19:32:00,
2013-09-20 15:37:00,78.3,73.0,29.77,SSW,194,10.0,26.0,84,0.00,,,0.01,meteohub,2013-09-20 19:37:00,
2013-09-20 15:42:00,78.3,73.0,29.77,SSW,198,14.0,26.0,84,0.00,,,0.01,meteohub,2013-09-20 19:42:00,
2013-09-20 15:47:00,78.1,73.2,29.77,SW,227,9.0,26.0,85,0.00,,,0.01,meteohub,2013-09-20 19:47:00,
2013-09-20 15:52:00,78.3,73.0,29.76,SW,219,11.0,23.0,84,0.00,,,0.01,meteohub,2013-09-20 19:52:00,
2013-09-20 15:57:00,78.3,73.4,29.76,SW,218,10.0,23.0,85,0.00,,,0.01,meteohub,2013-09-20 19:57:00,
2013-09-20 16:02:00,78.1,72.9,29.76,SW,215,15.0,26.0,84,0.00,,,0.01,meteohub,2013-09-20 20:02:00,
2013-09-20 16:07:00,78.1,73.2,29.76,SSW,201,12.0,26.0,85,0.00,,,0.01,meteohub,2013-09-20 20:07:00,
2013-09-20 16:13:00,78.1,73.2,29.76,SSW,201,18.0,26.0,85,0.00,,,0.01,meteohub,2013-09-20 20:13:00,
2013-09-20 16:18:00,78.1,73.2,29.76,SSE,153,15.0,23.0,85,0.00,,,0.01,meteohub,2013-09-20 20:18:00,
2013-09-20 16:23:00,78.1,73.2,29.75,SSW,211,15.0,22.0,85,0.00,,,0.01,meteohub,2013-09-20 20:23:00,
2013-09-20 16:28:00,77.9,73.0,29.75,South,187,15.0,24.0,85,0.00,,,0.01,meteohub,2013-09-20 20:28:00,
2013-09-20 16:33:00,78.1,73.2,29.75,South,186,14.0,24.0,85,0.00,,,0.01,meteohub,2013-09-20 20:33:00,
2013-09-20 16:39:00,77.9,73.0,29.75,South,185,23.0,24.0,85,0.00,,,0.01,meteohub,2013-09-20 20:39:00,
2013-09-20 16:44:00,77.9,73.0,29.75,SSW,196,22.0,27.0,85,0.00,,,0.01,meteohub,2013-09-20 20:44:00,
2013-09-20 16:49:00,77.7,72.9,29.75,South,187,13.0,27.0,85,0.00,,,0.01,meteohub,2013-09-20 20:49:00,
2013-09-20 16:54:00,77.7,72.9,29.75,South,189,15.0,23.0,85,0.00,,,0.01,meteohub,2013-09-20 20:54:00,
2013-09-20 16:59:00,77.7,72.9,29.75,SSW,202,12.0,28.0,85,0.00,,,0.01,meteohub,2013-09-20 20:59:00,
2013-09-20 17:05:00,77.9,73.0,29.75,SSW,199,12.0,28.0,85,0.00,,,0.01,meteohub,2013-09-20 21:05:00,
2013-09-20 17:10:00,78.1,73.2,29.74,SSW,194,10.0,28.0,85,0.00,,,0.01,meteohub,2013-09-20 21:10:00,
2013-09-20 17:15:00,78.3,73.4,29.74,SE,138,16.0,21.0,85,0.00,,,0.01,meteohub,2013-09-20 21:15:00,
2013-09-20 17:20:00,78.3,73.0,29.74,SSW,194,15.0,19.0,84,0.00,,,0.01,meteohub,2013-09-20 21:20:00,
2013-09-20 17:25:00,78.3,73.4,29.73,SSW,205,16.0,20.0,85,0.00,,,0.01,meteohub,2013-09-20 21:25:00,
2013-09-20 17:30:00,78.3,73.0,29.73,SSE,161,13.0,20.0,84,0.00,,,0.01,meteohub,2013-09-20 21:30:00,
2013-09-20 17:36:00,78.3,73.0,29.73,SW,221,13.0,20.0,84,0.00,,,0.01,meteohub,2013-09-20 21:36:00,
2013-09-20 17:41:00,78.4,73.2,29.73,SSE,149,8.0,27.0,84,0.00,,,0.01,meteohub,2013-09-20 21:41:00,
2013-09-20 17:46:00,78.4,73.2,29.73,South,169,12.0,27.0,84,0.00,,,0.01,meteohub,2013-09-20 21:46:00,
2013-09-20 17:51:00,78.4,73.6,29.73,South,180,6.0,23.0,85,0.00,,,0.01,meteohub,2013-09-20 21:51:00,
2013-09-20 17:56:00,78.4,73.6,29.73,SSE,165,5.0,23.0,85,0.00,,,0.01,meteohub,2013-09-20 21:56:00,
2013-09-20 18:02:00,78.4,73.6,29.73,SW,223,7.0,17.0,85,0.00,,,0.01,meteohub,2013-09-20 22:02:00,
2013-09-20 18:07:00,78.4,73.6,29.72,SSW,208,6.0,19.0,85,0.00,,,0.01,meteohub,2013-09-20 22:07:00,
2013-09-20 18:12:00,78.4,73.2,29.72,SW,215,9.0,22.0,84,0.00,,,0.01,meteohub,2013-09-20 22:12:00,
2013-09-20 18:17:00,78.4,73.2,29.72,SSE,154,10.0,23.0,84,0.00,,,0.01,meteohub,2013-09-20 22:17:00,
2013-09-20 18:22:00,78.4,73.2,29.71,SE,140,5.0,23.0,84,0.00,,,0.01,meteohub,2013-09-20 22:22:00,
2013-09-20 18:27:00,78.4,73.2,29.71,SE,142,9.0,23.0,84,0.00,,,0.01,meteohub,2013-09-20 22:27:00,
2013-09-20 18:32:00,78.4,73.2,29.72,South,191,4.0,23.0,84,0.00,,,0.01,meteohub,2013-09-20 22:32:00,
2013-09-20 18:37:00,78.3,73.4,29.72,SSW,199,6.0,20.0,85,0.00,,,0.01,meteohub,2013-09-20 22:37:00,
2013-09-20 18:42:00,78.3,73.4,29.72,SSW,205,9.0,20.0,85,0.00,,,0.01,meteohub,2013-09-20 22:42:00,
2013-09-20 18:47:00,78.1,73.2,29.72,South,180,9.0,19.0,85,0.00,,,0.01,meteohub,2013-09-20 22:47:00,
2013-09-20 18:52:00,78.1,73.2,29.72,South,174,5.0,19.0,85,0.00,,,0.01,meteohub,2013-09-20 22:52:00,
2013-09-20 18:57:00,77.7,72.9,29.72,SSW,198,4.0,17.0,85,0.00,,,0.01,meteohub,2013-09-20 22:57:00,
2013-09-20 19:02:00,77.5,73.0,29.71,SSW,212,5.0,17.0,86,0.00,,,0.01,meteohub,2013-09-20 23:02:00,
2013-09-20 19:07:00,77.5,73.0,29.71,South,190,12.0,17.0,86,0.00,,,0.01,meteohub,2013-09-20 23:07:00,
2013-09-20 19:12:00,77.5,73.0,29.71,SSE,167,8.0,18.0,86,0.00,,,0.01,meteohub,2013-09-20 23:12:00,
2013-09-20 19:17:00,77.4,72.9,29.71,SSW,194,5.0,18.0,86,0.00,,,0.01,meteohub,2013-09-20 23:17:00,
2013-09-20 19:22:00,77.4,72.9,29.71,South,186,12.0,19.0,86,0.00,,,0.01,meteohub,2013-09-20 23:22:00,
2013-09-20 19:27:00,77.2,72.7,29.70,SSE,159,9.0,19.0,86,0.00,,,0.01,meteohub,2013-09-20 23:27:00,
2013-09-20 19:32:00,77.2,72.7,29.70,South,182,12.0,19.0,86,0.00,,,0.01,meteohub,2013-09-20 23:32:00,
2013-09-20 19:37:00,77.0,72.9,29.70,SSE,163,11.0,19.0,87,0.00,,,0.01,meteohub,2013-09-20 23:37:00,
2013-09-20 19:42:00,76.8,72.7,29.70,South,179,17.0,17.0,87,0.00,,,0.01,meteohub,2013-09-20 23:42:00,
2013-09-20 19:47:00,76.6,72.5,29.70,SSE,168,8.0,20.0,87,0.00,,,0.01,meteohub,2013-09-20 23:47:00,
2013-09-20 19:52:00,76.6,72.9,29.70,SSE,155,5.0,20.0,88,0.00,,,0.01,meteohub,2013-09-20 23:52:00,
2013-09-20 19:57:00,76.6,72.5,29.70,SSW,193,14.0,20.0,87,0.00,,,0.01,meteohub,2013-09-20 23:57:00,
2013-09-20 20:02:00,76.6,72.5,29.70,SSE,168,15.0,19.0,87,0.00,,,0.01,meteohub,2013-09-21 00:02:00,
2013-09-20 20:07:00,76.5,72.3,29.70,South,178,13.0,19.0,87,0.00,,,0.00,meteohub,2013-09-21 00:07:00,
2013-09-20 20:12:00,76.6,72.5,29.70,SSW,192,11.0,18.0,87,0.00,,,0.00,meteohub,2013-09-21 00:12:00,
2013-09-20 20:17:00,76.5,72.3,29.70,SW,234,11.0,18.0,87,0.00,,,0.00,meteohub,2013-09-21 00:17:00,
2013-09-20 20:22:00,76.5,72.3,29.70,SW,227,4.0,19.0,87,0.00,,,0.00,meteohub,2013-09-21 00:22:00,
2013-09-20 20:27:00,76.3,72.5,29.70,SW,232,8.0,19.0,88,0.00,,,0.00,meteohub,2013-09-21 00:27:00,
2013-09-20 20:32:00,76.3,72.5,29.70,SW,222,7.0,19.0,88,0.00,,,0.00,meteohub,2013-09-21 00:32:00,
2013-09-20 20:37:00,76.1,72.3,29.71,South,175,18.0,20.0,88,0.00,,,0.00,meteohub,2013-09-21 00:37:00,
2013-09-20 20:42:00,75.9,72.1,29.70,South,174,5.0,22.0,88,0.00,,,0.00,meteohub,2013-09-21 00:42:00,
2013-09-20 20:47:00,75.9,72.1,29.70,South,189,6.0,22.0,88,0.00,,,0.00,meteohub,2013-09-21 00:47:00,
2013-09-20 20:53:00,75.7,72.3,29.70,South,178,11.0,22.0,89,0.00,,,0.00,meteohub,2013-09-21 00:53:00,
2013-09-20 20:58:00,75.7,72.3,29.70,SSW,195,5.0,20.0,89,0.00,,,0.00,meteohub,2013-09-21 00:58:00,
2013-09-20 21:03:00,75.7,72.3,29.70,SSE,163,14.0,20.0,89,0.00,,,0.00,meteohub,2013-09-21 01:03:00,
2013-09-20 21:08:00,75.7,72.0,29.70,SSE,163,9.0,20.0,88,0.00,,,0.00,meteohub,2013-09-21 01:08:00,
2013-09-20 21:13:00,75.7,72.0,29.70,South,180,9.0,20.0,88,0.00,,,0.00,meteohub,2013-09-21 01:13:00,
2013-09-20 21:18:00,75.7,72.0,29.70,SSW,202,12.0,19.0,88,0.00,,,0.00,meteohub,2013-09-21 01:18:00,
2013-09-20 21:23:00,75.7,72.0,29.70,South,189,11.0,19.0,88,0.00,,,0.00,meteohub,2013-09-21 01:23:00,
2013-09-20 21:28:00,75.9,72.1,29.70,SSW,212,16.0,19.0,88,0.00,,,0.00,meteohub,2013-09-21 01:28:00,
2013-09-20 21:34:00,76.1,72.3,29.71,SW,217,5.0,20.0,88,0.00,,,0.00,meteohub,2013-09-21 01:34:00,
2013-09-20 21:39:00,76.1,72.3,29.71,SW,215,14.0,20.0,88,0.00,,,0.00,meteohub,2013-09-21 01:39:00,
2013-09-20 21:44:00,76.1,72.3,29.71,SSW,196,7.0,24.0,88,0.00,,,0.00,meteohub,2013-09-21 01:44:00,
2013-09-20 21:49:00,76.1,72.3,29.71,SSW,198,18.0,24.0,88,0.00,,,0.00,meteohub,2013-09-21 01:49:00,
2013-09-20 21:54:00,75.9,72.1,29.70,South,189,21.0,21.0,88,0.00,,,0.00,meteohub,2013-09-21 01:54:00,
2013-09-20 21:59:00,75.9,72.1,29.70,SSW,197,15.0,24.0,88,0.00,,,0.00,meteohub,2013-09-21 01:59:00,
2013-09-20 22:04:00,75.9,72.1,29.70,SW,232,18.0,24.0,88,0.00,,,0.00,meteohub,2013-09-21 02:04:00,
2013-09-20 22:09:00,75.9,71.8,29.70,SSW,213,10.0,24.0,87,0.00,,,0.00,meteohub,2013-09-21 02:09:00,
2013-09-20 22:14:00,76.1,72.0,29.71,SSW,212,15.0,23.0,87,0.00,,,0.00,meteohub,2013-09-21 02:14:00,
2013-09-20 22:19:00,75.9,71.8,29.70,South,177,10.0,23.0,87,0.00,,,0.00,meteohub,2013-09-21 02:19:00,
2013-09-20 22:25:00,75.9,71.8,29.70,South,186,11.0,23.0,87,0.00,,,0.00,meteohub,2013-09-21 02:25:00,
2013-09-20 22:30:00,75.9,71.8,29.70,South,180,11.0,24.0,87,0.00,,,0.00,meteohub,2013-09-21 02:30:00,
2013-09-20 22:35:00,75.7,72.0,29.69,SSE,163,10.0,24.0,88,0.00,,,0.00,meteohub,2013-09-21 02:35:00,
2013-09-20 22:40:00,75.7,72.0,29.70,SSW,199,13.0,23.0,88,0.00,,,0.00,meteohub,2013-09-21 02:40:00,
2013-09-20 22:45:00,75.7,72.0,29.70,SSW,192,18.0,23.0,88,0.00,,,0.00,meteohub,2013-09-21 02:45:00,
2013-09-20 22:51:00,75.7,72.0,29.69,SSW,196,14.0,24.0,88,0.00,,,0.00,meteohub,2013-09-21 02:51:00,
2013-09-20 22:56:00,75.7,72.0,29.69,SSW,211,15.0,24.0,88,0.00,,,0.00,meteohub,2013-09-21 02:56:00,
2013-09-20 23:01:00,75.6,71.8,29.69,SSW,209,13.0,25.0,88,0.00,,,0.00,meteohub,2013-09-21 03:01:00,
2013-09-20 23:07:00,75.6,71.8,29.69,SSW,213,11.0,25.0,88,0.00,,,0.00,meteohub,2013-09-21 03:07:00,
2013-09-20 23:12:00,75.4,71.6,29.69,SW,236,12.0,24.0,88,0.00,,,0.00,meteohub,2013-09-21 03:12:00,
2013-09-20 23:17:00,75.4,71.6,29.69,SSW,196,16.0,24.0,88,0.00,,,0.00,meteohub,2013-09-21 03:17:00,
2013-09-20 23:22:00,75.4,72.0,29.68,South,184,9.0,24.0,89,0.00,,,0.00,meteohub,2013-09-21 03:22:00,
2013-09-20 23:27:00,75.4,72.0,29.69,SW,228,13.0,24.0,89,0.00,,,0.00,meteohub,2013-09-21 03:27:00,
2013-09-20 23:32:00,74.1,71.1,29.70,West,264,19.0,24.0,90,0.00,,,0.00,meteohub,2013-09-21 03:32:00,
2013-09-20 23:37:00,72.0,69.8,29.71,West,271,22.0,29.0,93,0.00,,,0.00,meteohub,2013-09-21 03:37:00,
2013-09-20 23:42:00,70.7,69.4,29.71,West,273,21.0,29.0,96,0.00,,,0.00,meteohub,2013-09-21 03:42:00,
2013-09-20 23:47:00,70.2,69.6,29.71,West,269,19.0,29.0,98,0.00,,,0.00,meteohub,2013-09-21 03:47:00,
2013-09-20 23:52:00,70.0,69.4,29.71,WSW,256,18.0,27.0,98,0.00,,,0.00,meteohub,2013-09-21 03:52:00,
2013-09-20 23:58:00,70.2,69.6,29.71,West,263,19.0,25.0,98,0.00,,,0.00,meteohub,2013-09-21 03:58:00,